Regional Weather Roundup
Issued by NWS State College, PA

Home | Current Version | Previous Version | Text Only | Print | Product List | Glossary On
Versions: 1 2 3 4 5 6 7 8 9 10 11 12 13 14 15 16 17 18 19 20 21 22 23 24 25 26 27 28 29 30 31 32 33 34 35 36 37 38 39 40 41 42 43 44 45 46 47 48 49 50
000
ASUS41 KCTP 241210
RWRCTP

REGIONAL WEATHER ROUNDUP
NATIONAL WEATHER SERVICE STATE COLLEGE PA
700 AM EST FRI FEB 24 2017

Note: "fair" indicates few or no clouds below 12,000 feet with no
significant weather and/or obstructions to visibility.

* = STATION THAT DOES NOT REPORT PRECIPITATION /E.G. RAIN...SNOW...ETC/
    THUNDER OR FOG.

PAZ002>004-007>009-013>016-020>023-029>032-241300-
WESTERN PENNSYLVANIA

CITY           SKY/WX    TMP DP  RH WIND       PRES   REMARKS
ERIE           CLOUDY    44  42  93 CALM      29.72F FOG
MEADVILLE      CLOUDY    56  51  84 VRB6      29.76S
FRANKLIN*      MOCLDY    54  48  82 S12       29.80R
NEW CASTLE     FAIR      55  52  89 S5        29.78S
BEAVER COUNTY  NOT AVBL
BUTLER*        CLOUDY    57  50  77 S8        29.81S
PITTSBURGH INT CLOUDY    56  52  86 S7        29.79S
PITTSBURGH     MOCLDY    57  48  72 S9        29.80S
INDIANA*       PTCLDY    55  50  82 SE5       29.85S
LATROBE        CLEAR     59  50  72 SW7       29.83S
WASHINGTON CO* CLOUDY    57  50  77 S5        29.83S
$$

PAZ004>006-010>012-017>019-024>028-033>037-041-042-045-046-049>053-241300-
CENTRAL PENNSYLVANIA

CITY           SKY/WX    TMP DP  RH WIND       PRES   REMARKS
BRADFORD       CLOUDY    54  52  93 S5        29.81S
DUBOIS         MOCLDY    54  49  83 CALM      29.82R
CLEARFIELD       N/A    N/A N/A N/A MISG      29.84S
JOHNSTOWN      CLEAR     54  48  80 S7        29.85S
ALTOONA        PTCLDY    54  49  83 W6        29.85S
STATE COLLEGE  CLOUDY    48  48 100 CALM      29.85R
WILLIAMSPORT   PTCLDY    43  42  97 VRB3      29.84S
SELINSGROVE    PTCLDY    48  47  96 CALM      29.86R
FT INDIANTOWN  PTCLDY    47  47 100 CALM      29.88S
CAPITAL CITY   CLEAR     52  47  83 CALM      29.88R
HARRISBURG     PTCLDY    49  47  93 E5        29.88R
YORK           CLEAR     52  50  93 CALM      29.88R
$$

PAZ038>040-043-044-047-048-054-055-060>062-067>071-241300-
EASTERN PENNSYLVANIA

CITY           SKY/WX    TMP DP  RH WIND       PRES   REMARKS
SCRANTON       CLOUDY    55  52  89 CALM      29.85F
MOUNT POCONO   CLOUDY    51  50  96 CALM      29.89F
ALLENTOWN      CLEAR     48  45  89 CALM      29.90S
QUAKERTOWN*    SUNNY     54  52  94 S5        29.92S
READING        CLEAR     56  52  86 S5        29.88F
LANCASTER      CLEAR     49  49 100 E6        29.89S
COATESVILLE    SUNNY     52  52 100 CALM      29.93S
POTTSTOWN      CLEAR     52  51  97 SE3       29.92S
BLUE BELL      CLEAR     52  50  93 S5        29.91F
DOYLESTOWN     CLEAR     53  52  96 S7        29.91S
WILLOW GROVE   NOT AVBL
NORTH PHILA    CLEAR     51  49  92 CALM      29.95R
PHILADELPHIA   PTCLDY    53  50  89 S6        29.94S
$$



USA.gov is the U.S. government's official web portal to all federal, state and local government web resources and services.